Location: Belfast
(54.5830°N, 5.9330°W)
Time: 10:21:52
(UTC+00:00)

ISS - Visible Passes

Search period start: 23 March 2017 00:00
Search period end: 02 April 2017 01:00
Orbit: 399 x 409 km, 51.6° (Epoch: 23 March)

Date Brightness Start Highest point End Pass type
(mag) Time Alt. Az. Time Alt. Az. Time Alt. Az.
28 Mar -1.7 21:33:36 10° SSW 21:34:36 15° S 21:34:36 15° S visible
29 Mar -1.7 20:42:20 10° S 20:43:45 12° SE 20:45:02 10° ESE visible
29 Mar -1.8 22:16:32 10° SW 22:17:43 19° SW 22:17:43 19° SW visible
30 Mar -2.7 21:24:28 10° SW 21:27:17 27° SSE 21:27:55 25° SE visible
30 Mar -1.0 23:00:12 10° WSW 23:00:35 13° WSW 23:00:35 13° WSW visible
31 Mar -3.2 22:07:53 10° WSW 22:10:36 42° SSW 22:10:36 42° SSW visible
01 Apr -3.2 21:15:38 10° SW 21:18:42 37° SSE 21:20:29 20° ESE visible
01 Apr -1.8 22:51:42 10° W 22:53:07 23° WSW 22:53:07 23° WSW visible
